Voltar ao catálogo

ONEWEB-0676

AtivoComunicaçõesPO
NORAD 56712·PAYLOAD·🇬🇧 United Kingdom

Lançado May 20, 2023 de Vandenberg Space Force Base

Loading…

Próximas Passagens (próximas 24 horas)

TLE

AtualizadoSource: CelesTrak SupGP

Época: Sep 14, 2026, 19:33 UTC

1 56712C 23068C   26257.81474954  .00001978  00000+0  51797-2 0  2576
2 56712  87.9147 210.9837 0002349  85.5686 300.5391 13.16591319    16

Acompanhe ONEWEB-0676 em tempo real com AllMySat

Download on the App Store